NOAA NWS Hourly Roundups by Site

Regional Weather Roundup for Seattle, WA

To Select Another Site Choose from List

Select Site:  

000
ASUS46 KSEW 200320
RWRWA

WASHINGTON REGIONAL WEATHER ROUNDUP
NATIONAL WEATHER SERVICE SEATTLE WA
700 PM PST TUE JAN 19 2021

NOTE:"FAIR" INDICATES FEW OR NO CLOUDS BELOW 12,000 FEET WITH NO
SIGNIFICANT WEATHER AND/OR OBSTRUCTIONS TO VISIBILITY.

WAZ507-509-555>559-200400-
SEATTLE, TACOMA, EVERETT, AND VICINITY

CITY           SKY/WX    TMP DP  RH WIND       PRES   REMARKS
EVERETT        PTCLDY    39  35  86 CALM      30.31F
BOEING FIELD   PTCLDY    39  35  86 CALM      30.31F
RENTON         PTCLDY    38  35  89 CALM      30.32S
SEATAC AIRPORT PTCLDY    39  35  86 SE5       30.30F
JBLM-MCCHORD   CLEAR     35  34  97 CALM      30.30F
PUYALLUP       FAIR      36  36 100 CALM      30.30F
BREMERTON      PTCLDY    32  31  96 CALM      30.30F
JBLM-FT LEWIS  MOCLDY    35  35 100 SE3       30.29F
TACOMA NARROWS PTCLDY    37  32  82 CALM      30.31S
$$

WAZ001-503-506-510-514-515-200400-
NORTH INTERIOR

CITY           SKY/WX    TMP DP  RH WIND       PRES   REMARKS
BELLINGHAM     CLOUDY    46  35  65 S9        30.29F
FRIDAY HARBOR  CLOUDY    44  40  85 SE8       30.31F
EASTSOUND      CLOUDY    45  39  81 S10       30.28F
PORT ANGELES   CLOUDY    39  36  89 CALM      30.31
EDIZ HOOK      CLOUDY    42  38  86 S3        30.30F
PORT TOWNSEND  CLOUDY    36  34  93 CALM      30.31F
NAS WHIDBEY    CLOUDY    42  36  79 SE7       30.35F
ARLINGTON      CLOUDY    37  36  96 N5        30.33S
BURLINGTON     CLOUDY    39  37  93 SE5       30.31F
$$

WAZ020-022-039-040-504-511-512-200400-
SOUTHWEST INTERIOR

CITY           SKY/WX    TMP DP  RH WIND       PRES   REMARKS
SHELTON        PTCLDY    34  33  96 CALM      30.28F
OLYMPIA        PTCLDY    36  32  85 CALM      30.30F
CHEHALIS       FAIR      36  36 100 CALM      30.31S
KELSO          MOCLDY    38  35  89 CALM      30.32S
VANCOUVER      MOCLDY    39  31  72 CALM      30.30F
SCAPPOOSE, OR  MOCLDY    36  31  82 W3        30.29F
PORTLAND, OR   MOCLDY    42  35  76 E6        30.30F
$$

WAZ021-516-517-200400-
WASHINGTON COAST

CITY           SKY/WX    TMP DP  RH WIND       PRES   REMARKS
FORKS          MOCLDY    40  34  79 E5        30.29F
HOQUIAM        PTCLDY    39  34  82 CALM      30.31F
ASTORIA, OR    MOCLDY    38  34  85 CALM      30.30F
$$

WAZ019-023-024-040-567>569-200400-
CASCADE MOUNTAINS AND COLUMBIA GORGE

CITY           SKY/WX    TMP DP  RH WIND       PRES   REMARKS
STAMPEDE PASS  PTCLDY    31  21  66 CALM      30.22F
TROUTDALE, OR  MOCLDY    45  33  63 E9        30.30F
HOOD RIVER, OR MOCLDY    37  32  81 SW3       30.33S
THE DALLES, OR MOCLDY    37  30  75 E6        30.34F
$$

WAZ026-027-041>044-520-521-200400-
EAST SLOPES

CITY           SKY/WX    TMP DP  RH WIND       PRES   REMARKS
OMAK           CLOUDY    36  28  73 S13       30.27F
WENATCHEE      PTCLDY    31  27  85 CALM      30.28F
ELLENSBURG     PTCLDY    30  22  72 NW7       30.27F
YAKIMA         MOCLDY    32  25  75 W6        30.29F
SUNNYSIDE ARPT MOCLDY    35  30  80 NE7       30.31S
YAKIMA TC      FAIR      34  24  66 CALM      30.27F
$$

WAZ028-034-035-200400-
COLUMBIA BASIN

CITY           SKY/WX    TMP DP  RH WIND       PRES   REMARKS
EPHRATA        MOCLDY    30  27  88 N6        30.29F
MOSES LAKE     MOCLDY    34  29  82 SE8       30.30F
PASCO          MOCLDY    34  31  88 E3        30.33F
RICHLAND ARPT  MOCLDY    37  32  82 CALM      30.33
HERMISTON, OR  MOCLDY    32  29  88 SE5       30.32F
$$

WAZ036>038-200400-
NORTHEAST WASHINGTON

CITY           SKY/WX    TMP DP  RH WIND       PRES   REMARKS
SPOKANE GEIGER CLOUDY    31  27  85 S7        30.27F
SPOKANE FELTS  MOCLDY    32  29  88 CALM      30.29F
FAIRCHILD AFB  PTCLDY    29  29 100 S5        30.26F
COEURDALENE,ID MOCLDY    30  28  92 S5        30.28F
DEER PARK      CLOUDY    30  27  88 S5        30.26F
$$

WAZ029>033-200400-
SOUTHEAST WASHINGTON

CITY           SKY/WX    TMP DP  RH WIND       PRES   REMARKS
PULLMAN        MOCLDY    31  27  85 E9        30.31F
LEWISTON, ID   MOCLDY    34  28  79 CALM      30.34F
WALLA WALLA    MOCLDY    34  29  82 E5        30.32F
PENDLETON, OR  MOCLDY    37  32  82 SE3       30.31F
$$


 

View Past Reports for Seattle, WA.

Products Courtesy of NOAA-NWS
NWS Information Parsing Script by Ken True at Saratoga Weather - Script by SE Lincoln Weather.